Flag for Bermuda Weather past 2 weeks in Hamilton, Bermuda

Now
72 °F

Scattered showers. Passing clouds.


Feels Like: 71 °F
Forecast: 66 / 73 °F
Wind: 28 mph from West

Location: Bermuda

Current Time: Apr 27, 2015 at 2:40:32 AM

Latest Report: Apr 27, 2015 at 1:55 AM


Visibility: N/A

Pressure: 29.47 "Hg

Humidity: 83%

Dew point: 66 °F

Location of HamiltonLocation

Historic Weather in Hamilton — Graph

°F

Hamilton temperature yesterday

Maximum temperature yesterday: 73 °F (at 4:55 PM)
Minimum temperature yesterday: 64 °F (at 12:55 AM)
Average temperature yesterday: 69 °F

Past Weeks' High & Low Weather Summary

 TemperatureHumidityPressure
High75 °F (Apr 23, 1:55 PM)94% (Apr 12, 2:55 AM)30.39 "Hg (Apr 12, 2:55 AM)
Low63 °F (Apr 24, 5:55 AM)52% (Apr 25, 2:55 AM)29.47 "Hg (Apr 26, 5:55 PM)
Average69 °F75%30.05 "Hg
* Reported Apr 12 12:55 AM — Apr 27 12:55 AM, Hamilton, Weather by CustomWeather, © 2015

Note: Actual official high and low records may vary slightly from our data, if they occured in-between our weather recording intervals... More about our weather records

Advertising

Hamilton weather history for previous 24 hours

 ConditionsComfort  
Time TempWeatherWind HumidityBarometerVisibility
12:55 AM
Mon, Apr 27
70 °FPassing clouds.24 mph88%29.47 "HgN/A
11:55 PM
Sun, Apr 26
70 °FPartly cloudy.17 mph88%29.50 "HgN/A
10:55 PM70 °FPassing clouds.20 mph88%29.53 "HgN/A
9:55 PM70 °FPassing clouds.22 mph88%29.53 "HgN/A
8:55 PM70 °FScattered clouds.24 mph83%29.50 "HgN/A
7:55 PM72 °FPassing clouds.24 mph78%29.50 "HgN/A
6:55 PM72 °FPassing clouds.23 mph83%29.50 "HgN/A
5:55 PM73 °FPassing clouds.22 mph74%29.47 "HgN/A
4:55 PM73 °FScattered clouds.22 mph78%29.50 "HgN/A
3:55 PM72 °FBroken clouds.21 mph83%29.50 "HgN/A
2:55 PM68 °FSprinkles. Broken clouds.22 mph88%29.53 "HgN/A
1:55 PM68 °FRain showers. Low clouds.24 mph88%29.59 "Hg3 mi
12:55 PM70 °FSprinkles. Mostly cloudy.35 mph78%29.59 "Hg6 mi
11:55 AM70 °FMostly cloudy.32 mph73%29.62 "HgN/A
10:55 AM70 °FSprinkles. Mostly cloudy.29 mph73%29.68 "HgN/A
9:55 AM70 °FCloudy.30 mph64%29.68 "HgN/A
8:55 AM68 °FCloudy.28 mph60%29.71 "HgN/A
6:55 AM66 °FMostly cloudy.23 mph64%29.74 "HgN/A
5:55 AM66 °FMostly cloudy.21 mph60%29.74 "HgN/A
4:55 AM64 °FMostly cloudy.16 mph64%29.77 "HgN/A
3:55 AM64 °FMostly cloudy.14 mph60%29.80 "HgN/A
2:55 AM64 °FOvercast.15 mph60%29.80 "HgN/A
Weather by CustomWeather, © 2015

See weather overviewHow to use our weather pages